STARLINK-2763, 48670

Orbit data source: Space-Track

STARLINK-2763, 48670 is a payload satellite owned by SpaceX/Seattle (US) in LEO that was launched on Wed, 26 May 2021 UTC via an FALCON 9 launch vehicle from the Air Force Eastern Test Range (AFETR). Payload-class satellites include a variety of spacecraft equipped with specific instruments for various scientific and technological missions. These include communications satellites like Starlink; space stations such as the ISS; scientific satellites like the Hubble; Earth observation satellites from companies like Planet Labs, Umbra, and HawkEye 360; GPS; miniature CubeSats for education and research; and military/defense satellites.

Loading next visibility...
Identifier
48670, 2021-044AJ
Orbit
LEO
Country
Flag of USUS
Related business
Manufacturer
SpaceX/Seattle
Mission
Operational Commercial Communications
Bus & Motor
STARLINK, Unknown motor
Mass
260 kg wet, ~248 kg dry
Launch date (UTC)
2021-05-26 (5 years ago)
Launch vehicle
FALCON 9
Launch site
Air Force Eastern Test Range (AFETR)
Object type
Payload
Rocket body
Debris
Shape & HBR
Box + 1 Pan, 10.1 m
Radar Cross Section
13.562 m², Large (>1 m²)

Expand to show TLE details & history
Last TLE update: 22 hours ago

TLE from 22 hours ago
0 STARLINK-2763
1 48670U 21044AJ  25349.10296820 -.00003907  00000-0 -24363-3 0  9999
2 48670  53.0541 131.3423 0001142 105.5770 254.5345 15.06391462251097
Epoch: 2025-12-15T02:28Z
TLE epoch observation values (Epoch: 2025-12-15T02:28:16.452Z)
Latitude
-0.00003°
Longitude
10.26739°
Altitude
548.328 km
Speed
7.589 km/s
True Right ascension
08h 45m 22s
True Declination
0° 00' 00"
Sunlit
Object was in full shadow at epoch
Visualization orbit readout
Latitude
Unknown
Longitude
Unknown
Altitude
Unknown
Speed
Unknown
Apparent Right ascension
Unknown
Apparent Declination
Unknown
Sunlit
N/A
Visualization observer readout
Local Sidereal Time
23:04:28
Azimuth
Unknown
Elevation
Unknown
Doppler factor
Unknown
Orbital elements
Apogee altitude
548.299 km
Perigee altitude
546.718 km
Semi-major axis
6,925.646 km
Eccentricity
0.00011
Inclination
53.0541°
RAAN
131.3423°
Arg. of periapsis
105.577°
True anomaly
254.52189°
Mean anomaly
254.5345°
Eccentric anomaly
254.52819°
Mean motion
3.76576 °/min
Orbital period
95.6 mins
BSTAR
-0.00024363
Loading maneuver chart data...
Computing Atmospheric mass density...
Loading historical data...
Loading historical data...
Loading historical data...
Loading historical data...
Loading historical data...
Loading historical data...
Loading historical data...

Documentation

Showing up to 5 results
|